EST,Max TemperatureF,Mean TemperatureF,Min TemperatureF,Max Dew PointF,MeanDew PointF,Min DewpointF,Max Humidity, Mean Humidity, Min Humidity, Max Sea Level PressureIn, Mean Sea Level PressureIn, Min Sea Level PressureIn, Max VisibilityMiles, Mean VisibilityMiles, Min VisibilityMiles, Max Wind SpeedMPH, Mean Wind SpeedMPH, Max Gust SpeedMPH,PrecipitationIn, CloudCover, Events, WindDirDegrees
2013-1-1,37,30,24,25,17,7,62,52,42,29.92,29.81,29.75,10,10,10,16,8,29,0.00,3,,267
2013-1-2,32,23,14,12,7,1,68,52,42,30.09,29.97,29.91,10,10,10,13,6,22,0.00,1,,287
2013-1-3,25,16,7,12,-1,-7,78,47,27,30.14,30.08,30.01,10,10,10,13,6,23,0.00,2,,282
2013-1-4,39,29,19,22,18,10,69,58,45,29.99,29.91,29.84,10,10,10,10,6,23,0.00,0,,229
2013-1-5,44,32,19,21,19,15,85,60,37,30.25,30.12,29.88,10,10,9,13,6,22,0.00,1,,247
2013-1-6,42,32,21,30,26,18,89,80,58,30.22,30.05,29.94,10,6,2,12,2,17,0.03,5,Snow,216
2013-1-7,42,30,19,28,20,16,89,73,40,30.41,30.23,29.98,10,8,3,13,2,,0.00,0,,356
2013-1-8,46,32,19,30,26,15,85,69,48,30.38,30.34,30.29,10,9,5,16,5,25,0.00,0,,216
2013-1-9,46,34,21,37,27,17,92,78,56,30.39,30.26,30.03,10,6,0,12,2,20,0.00,2,Fog-Rain,225
2013-1-10,48,38,26,31,22,19,78,51,33,30.53,30.34,30.09,10,10,10,13,8,28,0.00,0,,295
2013-1-11,42,32,21,37,28,18,93,79,60,30.51,30.38,30.22,10,9,7,9,1,,0.17,3,Rain,140
2013-1-12,46,42,39,44,40,37,93,90,86,30.21,30.16,30.13,10,5,0,7,3,,0.05,8,Fog-Rain,111
2013-1-13,53,48,42,49,45,40,97,91,83,30.16,30.11,30.03,10,5,0,10,2,,0.00,8,Fog,204
2013-1-14,62,54,42,52,46,28,93,77,40,30.25,30.04,29.92,10,9,2,12,7,18,0.02,7,Rain,253
2013-1-15,43,39,35,36,31,26,89,75,53,30.30,30.26,30.22,10,10,5,6,2,,0.10,6,Rain,314
2013-1-16,37,35,33,33,31,26,92,87,62,30.24,29.99,29.81,10,3,0,7,2,,0.53,8,Fog-Rain-Snow,309
2013-1-17,43,38,33,32,26,19,89,66,45,30.06,29.97,29.86,10,10,8,13,6,18,0.00,3,,270
2013-1-18,32,24,16,16,2,-6,65,40,24,30.48,30.30,30.04,10,10,4,14,8,24,0.00,2,Snow,329
2013-1-19,48,34,21,34,26,9,65,57,48,30.38,30.15,29.93,10,10,10,21,10,39,0.00,2,,204
2013-1-20,55,42,30,36,26,6,66,48,31,29.94,29.76,29.58,10,10,10,22,14,39,0.00,0,,247
2013-1-21,30,26,23,22,14,4,85,63,35,30.11,29.94,29.78,10,6,1,9,5,16,0.07,5,Snow,306
2013-1-22,26,20,14,22,12,-5,88,66,28,30.08,29.83,29.75,10,7,2,16,5,29,0.01,4,Snow,278
2013-1-23,17,13,8,0,-7,-11,56,41,33,30.16,30.12,30.07,10,10,10,17,8,29,0.00,1,,281
2013-1-24,21,12,3,-8,-9,-11,55,38,25,30.22,30.13,30.06,10,10,10,13,8,25,0.00,0,,291
2013-1-25,26,18,9,12,-5,-12,71,38,24,30.31,30.21,30.05,10,10,5,12,7,17,0.00,2,Snow,278
2013-1-26,27,18,10,12,2,-10,84,52,26,30.24,30.07,30.00,10,10,7,12,6,21,0.00,1,,312
2013-1-27,32,22,12,5,1,-2,73,43,24,30.45,30.37,30.25,10,10,10,13,8,23,0.00,0,,297
2013-1-28,33,22,10,29,21,2,89,77,28,30.45,30.19,30.00,10,5,1,12,2,17,0.15,7,Rain-Snow,148
2013-1-29,36,33,30,33,30,27,92,88,85,30.19,30.13,29.99,5,3,0,7,1,,0.05,8,Fog-Rain,342
2013-1-30,61,48,35,55,46,33,93,85,78,30.14,29.86,29.56,10,8,2,21,9,34,0.10,8,Rain,180
2013-1-31,64,49,33,57,43,11,88,68,30,29.62,29.24,29.04,10,8,1,26,18,51,0.76,6,Rain,220